Weather History for Howell, MI

Change the Weather History Date:

Thursday, March 13, 2014

  Actual Average Record
Temperature  
Mean Temperature 9 °F -  
Max Temperature 24 °F 39 °F 71 °F (2007)
Min Temperature -6 °F 23 °F -6 °F (2014)
Degree Days  
Heating Degree Days 56    
Moisture  
Dew Point 0 °F    
Average Humidity 64    
Maximum Humidity 87    
Minimum Humidity 36    
Precipitation  
Precipitation 0.00 in - - ()
Sea Level Pressure  
Sea Level Pressure 30.02 in    
Wind  
Wind Speed 6 mph (SW)    
Max Wind Speed 13 mph    
Max Gust Speed 18 mph    
Visibility 10 miles    
Events      
Averages and records for this station are not official NWS values.
T = Trace of Precipitation, MM = Missing Value Source: NWS Daily Summary

Daily Weather History Graph

Daily Weather History Graph

Search for Another Location

Airport:

Trip Planner

Search our weather history database for the weather conditions in past years. The results will help you decide how hot, cold, wet, or windy it might be!

Date:

Astronomy

Mar. 13, 2014 Rise Set
Actual Time 7:51 AM EDT 7:40 PM EDT
Civil Twilight 7:23 AM EDT 8:08 PM EDT
Nautical Twilight 6:50 AM EDT 8:40 PM EDT
Astronomical Twilight 6:17 AM EDT 9:14 PM EDT
Moon 5:02 PM EDT (3/13) 6:00 AM EDT (3/13)
Length of Visible Light 12h 44m
Length of Day
11h 48m
Waxing Gibbous, 91% of the Moon is Illuminated
Mar 13
Waxing Gibbous
Mar 16
Full
Mar 23
Last Quarter
Mar 30
New
Apr 7
First Quarter

Hourly Weather History & Observations

Time (EDT) Temp. Windchill Dew Point Humidity Pressure Visibility Wind Dir Wind Speed Gust Speed Precip Events Conditions
12:15 AM 6.1 °F -2.8 °F -0.6 °F 74% 30.00 in 10.0 mi NNW 4.6 mph - N/A   Clear
12:35 AM 7.3 °F 0.5 °F -0.9 °F 69% 29.99 in 10.0 mi North 3.5 mph - N/A   Clear
12:55 AM 7.2 °F -1.5 °F -1.8 °F 67% 30.00 in 10.0 mi NW 4.6 mph - N/A   Clear
1:15 AM 6.3 °F -0.7 °F -1.5 °F 71% 30.00 in 10.0 mi WNW 3.5 mph - N/A   Clear
1:35 AM 5.0 °F -5.6 °F -2.4 °F 72% 30.00 in 10.0 mi WNW 5.8 mph - N/A   Clear
1:55 AM 3.4 °F -8.9 °F -2.7 °F 76% 30.00 in 10.0 mi WNW 6.9 mph - N/A   Clear
2:14 AM 0.3 °F -12.6 °F -4.5 °F 80% 30.00 in 10.0 mi WNW 6.9 mph - N/A   Clear
2:35 AM 1.2 °F -12.7 °F -3.3 °F 81% 30.00 in 10.0 mi WNW 8.1 mph - N/A   Clear
2:55 AM 1.8 °F -10.8 °F -2.7 °F 81% 30.00 in 10.0 mi West 6.9 mph - N/A   Clear
3:14 AM 0.9 °F -13.1 °F -3.6 °F 81% 30.00 in 10.0 mi WNW 8.1 mph - N/A   Clear
3:35 AM -1.7 °F -13.5 °F -6.0 °F 82% 30.00 in 10.0 mi WNW 5.8 mph - N/A   Clear
3:55 AM -0.8 °F -13.9 °F -4.9 °F 83% 30.01 in 10.0 mi WNW 6.9 mph - N/A   Clear
4:14 AM 0.1 °F -12.8 °F -4.5 °F 81% 30.00 in 10.0 mi WNW 6.9 mph - N/A   Clear
4:35 AM 0.5 °F -12.3 °F -4.2 °F 81% 30.00 in 10.0 mi West 6.9 mph - N/A   Clear
4:55 AM 0.5 °F -11.0 °F -4.4 °F 80% 30.01 in 10.0 mi West 5.8 mph - N/A   Clear
5:14 AM 0.1 °F -11.4 °F -4.5 °F 81% 30.01 in 10.0 mi West 5.8 mph - N/A   Clear
5:35 AM -2.7 °F -14.8 °F -6.7 °F 83% 30.02 in 10.0 mi West 5.8 mph - N/A   Clear
5:55 AM -2.6 °F -16.0 °F -6.2 °F 85% 30.03 in 10.0 mi West 6.9 mph - N/A   Clear
6:15 AM -2.0 °F -12.2 °F -6.5 °F 81% 30.03 in 10.0 mi West 4.6 mph - N/A   Clear
6:35 AM -4.2 °F -14.8 °F -7.8 °F 84% 30.04 in 10.0 mi West 4.6 mph - N/A   Clear
6:55 AM -4.7 °F - -8.1 °F 85% 30.04 in 10.0 mi Calm Calm - N/A   Clear
7:15 AM -4.4 °F -15.0 °F -7.6 °F 86% 30.05 in 10.0 mi West 4.6 mph - N/A   Clear
7:35 AM -6.0 °F -18.6 °F -9.0 °F 87% 30.06 in 10.0 mi West 5.8 mph - N/A   Clear
7:55 AM -3.5 °F -15.7 °F -6.5 °F 87% 30.07 in 10.0 mi West 5.8 mph - N/A   Clear
8:15 AM -4.2 °F -14.8 °F -7.6 °F 85% 30.08 in 10.0 mi West 4.6 mph - N/A   Clear
8:35 AM -3.6 °F -14.1 °F -6.9 °F 86% 30.09 in 10.0 mi West 4.6 mph - N/A   Clear
8:54 AM -2.2 °F -12.5 °F -5.4 °F 86% 30.10 in 10.0 mi West 4.6 mph - N/A   Clear
9:15 AM -0.4 °F -8.3 °F -4.0 °F 85% 30.10 in 10.0 mi WSW 3.5 mph - N/A   Clear
9:35 AM 1.6 °F -8.0 °F -3.1 °F 81% 30.10 in 10.0 mi WSW 4.6 mph - N/A   Clear
9:54 AM 4.1 °F -3.2 °F -1.8 °F 76% 30.11 in 10.0 mi West 3.5 mph - N/A   Clear
10:15 AM 4.8 °F -2.3 °F -2.2 °F 73% 30.11 in 10.0 mi WSW 3.5 mph - N/A   Clear
10:35 AM 6.6 °F -2.2 °F -1.3 °F 70% 30.11 in 10.0 mi WSW 4.6 mph - N/A   Clear
10:54 AM 6.8 °F -2.0 °F -2.0 °F 67% 30.11 in 10.0 mi WSW 4.6 mph - N/A   Clear
11:15 AM 8.1 °F 1.4 °F -1.5 °F 65% 30.10 in 10.0 mi SW 3.5 mph - N/A   Clear
11:34 AM 9.3 °F 1.0 °F -0.9 °F 63% 30.10 in 10.0 mi WSW 4.6 mph - N/A   Clear
11:55 AM 11.1 °F 0.4 °F -1.3 °F 57% 30.11 in 10.0 mi West 6.9 mph - N/A   Clear
12:15 PM 12.9 °F 5.2 °F -1.1 °F 54% 30.10 in 10.0 mi WSW 4.6 mph - N/A   Clear
12:34 PM 13.3 °F 2.0 °F -1.3 °F 52% 30.10 in 10.0 mi SW 8.1 mph - N/A   Clear
12:55 PM 14.7 °F 2.9 °F -1.5 °F 49% 30.09 in 10.0 mi WSW 9.2 mph - N/A   Mostly Cloudy
1:15 PM 15.8 °F 4.2 °F -0.2 °F 49% 30.09 in 10.0 mi WSW 9.2 mph - N/A   Overcast
1:34 PM 16.3 °F 5.7 °F -0.9 °F 47% 30.08 in 10.0 mi SW 8.1 mph - N/A   Scattered Clouds
1:55 PM 17.4 °F 7.1 °F -0.4 °F 46% 30.08 in 10.0 mi SW 8.1 mph - N/A   Scattered Clouds
2:15 PM 19.0 °F 9.0 °F -0.0 °F 43% 30.07 in 10.0 mi WSW 8.1 mph - N/A   Overcast
2:35 PM 19.0 °F 12.3 °F -2.0 °F 40% 30.05 in 10.0 mi SSW 4.6 mph - N/A   Overcast
2:55 PM 20.8 °F 10.4 °F -2.2 °F 36% 30.05 in 10.0 mi SW 9.2 mph - N/A   Overcast
3:15 PM 21.2 °F 10.9 °F -2.0 °F 36% 30.05 in 10.0 mi SW 9.2 mph - N/A   Overcast
3:35 PM 21.4 °F 12.8 °F -1.8 °F 36% 30.04 in 10.0 mi SW 6.9 mph - N/A   Overcast
3:55 PM 21.9 °F 11.7 °F -0.8 °F 37% 30.03 in 10.0 mi SSW 9.2 mph - N/A   Overcast
4:15 PM 22.6 °F 13.4 °F 0.7 °F 39% 30.01 in 10.0 mi SW 8.1 mph - N/A   Overcast
4:35 PM 23.0 °F 11.7 °F -0.6 °F 36% 30.01 in 10.0 mi SSW 11.5 mph - N/A   Overcast
4:55 PM 23.5 °F 13.0 °F 0.3 °F 37% 30.00 in 10.0 mi SSW 10.4 mph - N/A   Overcast
5:15 PM 23.7 °F 12.6 °F 0.3 °F 36% 29.99 in 10.0 mi SW 11.5 mph 18.4 mph N/A   Overcast
5:35 PM 24.4 °F 13.5 °F 0.9 °F 36% 29.98 in 10.0 mi SSW 11.5 mph - N/A   Overcast
5:55 PM 24.4 °F 15.6 °F 1.0 °F 36% 29.98 in 10.0 mi SSW 8.1 mph - N/A   Overcast
6:14 PM 24.3 °F 12.7 °F 2.5 °F 39% 29.98 in 10.0 mi SSW 12.7 mph 17.3 mph N/A   Overcast
6:35 PM 24.4 °F 14.2 °F 2.8 °F 39% 29.98 in 10.0 mi SSW 10.4 mph - N/A   Overcast
6:55 PM 23.9 °F 13.5 °F 4.5 °F 43% 29.98 in 10.0 mi South 10.4 mph - N/A   Overcast
7:14 PM 23.4 °F 11.6 °F 6.3 °F 48% 29.97 in 10.0 mi South 12.7 mph 17.3 mph N/A   Overcast
7:35 PM 22.8 °F 10.9 °F 6.8 °F 50% 29.97 in 10.0 mi South 12.7 mph 17.3 mph N/A   Overcast
7:55 PM 22.6 °F 10.7 °F 7.7 °F 53% 29.96 in 10.0 mi South 12.7 mph 18.4 mph N/A   Overcast
8:15 PM 22.1 °F 12.0 °F 8.4 °F 56% 29.96 in 10.0 mi South 9.2 mph 16.1 mph N/A   Overcast
8:35 PM 21.9 °F 12.5 °F 9.3 °F 58% 29.96 in 10.0 mi South 8.1 mph 16.1 mph N/A   Overcast
8:55 PM 21.6 °F 10.6 °F 9.9 °F 61% 29.96 in 10.0 mi South 10.4 mph - N/A   Overcast
9:15 PM 20.8 °F 11.2 °F 9.5 °F 62% 29.96 in 10.0 mi South 8.1 mph - N/A   Scattered Clouds
9:35 PM 20.5 °F 9.2 °F 9.5 °F 63% 29.95 in 10.0 mi South 10.4 mph - N/A   Scattered Clouds
9:55 PM 20.3 °F 10.6 °F 9.3 °F 63% 29.95 in 10.0 mi South 8.1 mph - N/A   Clear
10:15 PM 19.9 °F 12.1 °F 9.1 °F 63% 29.95 in 10.0 mi South 5.8 mph - N/A   Clear
10:35 PM 20.1 °F 12.3 °F 9.5 °F 63% 29.95 in 10.0 mi SSE 5.8 mph - N/A   Mostly Cloudy
10:55 PM 19.4 °F 11.5 °F 9.5 °F 65% 29.95 in 10.0 mi SSE 5.8 mph - N/A   Overcast
11:15 PM 19.8 °F 10.8 °F 10.2 °F 67% 29.94 in 10.0 mi SSE 6.9 mph - N/A   Overcast
11:35 PM 20.1 °F 10.3 °F 10.0 °F 65% 29.93 in 10.0 mi SSE 8.1 mph - N/A   Overcast
11:55 PM 20.1 °F 9.5 °F 10.2 °F 66% 29.92 in 10.0 mi SSE 9.2 mph - N/A   Overcast